Tekamah, NE

2:31 PM CDT on June 25, 2017 (GMT -0500)
Tekamah

Weather History for KTQE - August, 2013

Change the Weather History Date:

Sunday, August 18, 2013

  Actual Average Record
Temperature  
Mean Temperature 66 °F -  
Max Temperature 80 °F 87 °F 103 °F (1988)
Min Temperature 51 °F 62 °F 46 °F (2002)
Growing Degree Days 16 (Base 50)    
Moisture  
Dew Point 56 °F    
Average Humidity 84    
Maximum Humidity 100    
Minimum Humidity 50    
Precipitation  
Precipitation 0.00 in - - ()
Sea Level Pressure  
Sea Level Pressure 30.11 in    
Wind  
Wind Speed 3 mph (South)    
Max Wind Speed 13 mph    
Max Gust Speed 21 mph    
Visibility 4 miles    
Events Fog    
Averages and records for this station are not official NWS values.
T = Trace of Precipitation, MM = Missing Value Source: NWS Daily Summary

Daily Weather History Graph

Daily Weather History Graph

Search for Another Location

Airport or City:

Trip Planner

Search our weather history database for the weather conditions in past years. The results will help you decide how hot, cold, wet, or windy it might be!

Date:

Astronomy

Aug. 18, 2013 Rise Set
Actual Time 6:36 AM CDT 8:19 PM CDT
Civil Twilight 6:06 AM CDT 8:49 PM CDT
Nautical Twilight 5:30 AM CDT 9:25 PM CDT
Astronomical Twilight 4:52 AM CDT 10:03 PM CDT
Moon 6:27 PM CDT (8/18) 3:45 AM CDT (8/18)
Length of Visible Light 14h 42m
Length of Day
13h 43m
Waxing Gibbous, 92% of the Moon is Illuminated
Aug 18
Waxing Gibbous
Aug 20
Full
Aug 28
Last Quarter
Sep 5
New
Sep 12
First Quarter

Hourly Weather History & Observations

Time (CDT) Temp. Heat Index Dew Point Humidity Pressure Visibility Wind Dir Wind Speed Gust Speed Precip Events Conditions
12:54 AM 55.9 °F - 54.0 °F 93% 30.12 in 3.0 mi Calm Calm - N/A   Clear
12:57 AM 55.4 °F - 53.6 °F 94% 30.14 in 1.2 mi Calm Calm - N/A   Clear
1:06 AM 55.4 °F - 53.6 °F 94% 30.14 in 0.2 mi SSW 3.5 mph - N/A Fog Fog
1:16 AM 55.4 °F - 53.6 °F 94% 30.14 in 2.0 mi SW 3.5 mph - N/A   Clear
1:28 AM 55.4 °F - 53.6 °F 94% 30.14 in 4.0 mi Calm Calm - N/A   Clear
1:54 AM 55.0 °F - 53.1 °F 93% 30.12 in 5.0 mi SSE 3.5 mph - N/A   Clear
2:25 AM 55.4 °F - 51.8 °F 88% 30.14 in 1.8 mi Calm Calm - N/A   Clear
2:37 AM 55.4 °F - 53.6 °F 94% 30.13 in 3.0 mi Calm Calm - N/A   Clear
2:54 AM 54.0 °F - 52.0 °F 93% 30.11 in 2.5 mi Calm Calm - N/A   Clear
3:02 AM 53.6 °F - 51.8 °F 94% 30.13 in 4.0 mi Calm Calm - N/A   Clear
3:44 AM 53.6 °F - 51.8 °F 94% 30.13 in 0.8 mi Calm Calm - N/A   Mist
3:54 AM 53.1 °F - 51.1 °F 93% 30.11 in 0.2 mi SW 3.5 mph - N/A Fog Fog
4:04 AM 53.6 °F - 51.8 °F 94% 30.13 in 1.5 mi South 3.5 mph - N/A   Partly Cloudy
4:31 AM 53.6 °F - 50.0 °F 88% 30.13 in 2.0 mi South 3.5 mph - N/A   Partly Cloudy
4:45 AM 51.8 °F - 50.0 °F 94% 30.13 in 0.5 mi SSW 3.5 mph - N/A Fog Fog
4:54 AM 52.0 °F - 50.0 °F 93% 30.11 in 0.5 mi SW 3.5 mph - N/A Fog Fog
4:57 AM 51.8 °F - 50.0 °F 94% 30.13 in 1.2 mi SW 3.5 mph - N/A   Scattered Clouds
5:05 AM 51.8 °F - 50.0 °F 94% 30.13 in 2.5 mi SSW 3.5 mph - N/A   Partly Cloudy
5:22 AM 51.8 °F - 50.0 °F 94% 30.14 in 1.5 mi SW 4.6 mph - N/A   Clear
5:48 AM 51.8 °F - 50.0 °F 94% 30.14 in 1.0 mi South 3.5 mph - N/A   Mist
5:54 AM 51.1 °F - 50.0 °F 96% 30.12 in 0.2 mi SSW 3.5 mph - N/A Fog Fog
6:54 AM 51.1 °F - 48.9 °F 92% 30.13 in 0.2 mi South 4.6 mph - N/A Fog Fog
7:42 AM 53.6 °F - 53.6 °F 100% 30.15 in 0.5 mi Calm Calm - N/A Fog Fog
7:54 AM 55.9 °F - 54.0 °F 93% 30.13 in 0.8 mi Calm Calm - N/A   Clear
8:02 AM 55.4 °F - 55.4 °F 100% 30.15 in 1.5 mi Calm Calm - N/A   Clear
8:14 AM 57.2 °F - 55.4 °F 94% 30.15 in 2.0 mi Calm Calm - N/A   Clear
8:35 AM 60.8 °F - 57.2 °F 88% 30.16 in 3.0 mi SSE 3.5 mph - N/A   Clear
8:54 AM 63.0 °F - 59.0 °F 87% 30.14 in 4.0 mi SSE 4.6 mph - N/A   Clear
9:54 AM 68.0 °F - 61.0 °F 78% 30.14 in 6.0 mi South 4.6 mph - N/A   Haze
10:54 AM 75.0 °F - 61.0 °F 62% 30.13 in 9.0 mi SSE 9.2 mph - N/A   Clear
11:54 AM 77.0 °F - 57.9 °F 52% 30.11 in 10.0 mi South 12.7 mph - N/A   Clear
12:54 PM 78.1 °F - 57.9 °F 50% 30.10 in 10.0 mi South 11.5 mph 20.7 mph N/A   Clear
1:54 PM 79.0 °F - 60.1 °F 52% 30.08 in 10.0 mi South 9.2 mph - N/A   Clear
2:54 PM 80.1 °F 80.9 °F 60.1 °F 50% 30.07 in 10.0 mi South 10.4 mph - N/A   Clear
3:54 PM 80.1 °F 80.9 °F 60.1 °F 50% 30.06 in 10.0 mi South 8.1 mph - N/A   Clear
4:54 PM 80.1 °F 80.9 °F 60.1 °F 50% 30.04 in 10.0 mi South 10.4 mph - N/A   Clear
5:54 PM 80.1 °F 80.9 °F 60.1 °F 50% 30.04 in 9.0 mi South 8.1 mph - N/A   Clear
6:54 PM 78.1 °F - 62.1 °F 58% 30.03 in 9.0 mi South 4.6 mph - N/A   Clear
7:54 PM 73.0 °F - 66.0 °F 79% 30.03 in 6.0 mi SSE 3.5 mph - N/A   Haze
8:54 PM 68.0 °F - 63.0 °F 84% 30.04 in 6.0 mi SE 5.8 mph - N/A   Haze
9:54 PM 64.9 °F - 62.1 °F 90% 30.04 in 4.0 mi SE 5.8 mph - N/A   Clear
10:54 PM 64.0 °F - 61.0 °F 90% 30.04 in 2.5 mi South 3.5 mph - N/A   Mostly Cloudy
11:07 PM 62.6 °F - 60.8 °F 94% 30.08 in 3.0 mi SSW 4.6 mph - N/A   Scattered Clouds
11:54 PM 63.0 °F - 60.1 °F 90% 30.05 in 3.0 mi South 4.6 mph - N/A   Partly Cloudy